• Processing (Info)

  • MPEC 2023-P70 : 2023 PA1

    The following Minor Planet Electronic Circular may be linked-to from your own Web pages, but must not otherwise be redistributed electronically.

    A form allowing access to any MPEC is at the bottom of this page.


    Read MPEC 2023-P69 Read MPEC 2023-P71


    M.P.E.C. 2023-P70                               Issued 2023 August 13, 13:22 UT
    
         The Minor Planet Electronic Circulars contain information on unusual
             minor planets, routine data on comets and natural satellites,
             and occasional editorial announcements.  They are published
        on behalf of Division F of the International Astronomical Union by the
              Minor Planet Center, Smithsonian Astrophysical Observatory,
                              Cambridge, MA 02138, U.S.A.
    			  
                 Prepared using the Tamkin Foundation Computer Network
    
                                  MPC@CFA.HARVARD.EDU
                URL https://www.minorplanetcenter.net/    ISSN 1523-6714
    
                                    2023 PA1                                 
    
    
    Observations:
         K23P01A* C2023 08 12.02704622 48 45.59 +12 03 01.5          19.0 RoEP070K88
         K23P01A  C2023 08 12.02975822 48 49.10 +12 04 35.4          19.1 RoEP070K88
         K23P01A  C2023 08 12.03247022 48 52.72 +12 06 09.8          18.9 RoEP070K88
         K23P01A  C2023 08 12.35437 22 57 25.55 +15 33 27.6          18.88RUEP070I41
         K23P01A  C2023 08 12.35472 22 57 26.16 +15 33 42.6          18.88RUEP070I41
         K23P01A  C2023 08 12.37013 22 57 52.07 +15 44 41.3          19.49gUEP070I41
         K23P01A  C2023 08 12.37048 22 57 52.64 +15 44 56.4          19.49gUEP070I41
         K23P01A 1C2023 08 12.88769 23 17 22.20 +23 01 55.6          19.2 VXEP070033
         K23P01A 1C2023 08 12.88798 23 17 22.96 +23 02 13.3          19.2 VXEP070033
         K23P01A 1C2023 08 12.88827 23 17 23.75 +23 02 30.7          19.4 VXEP070033
         K23P01A 1C2023 08 12.88860 23 17 24.68 +23 02 50.8          19.2 VXEP070033
         K23P01A KB2023 08 12.90058323 18 01.50 +23 15 11.9          19.0 GXEP070I93
         K23P01A KB2023 08 12.90260123 18 07.10 +23 17 15.3          18.6 GXEP070I93
         K23P01A KB2023 08 12.90461423 18 12.76 +23 19 17.9          19.0 GXEP070I93
         K23P01A KB2023 08 12.90661823 18 18.31 +23 21 20.9          18.5 GXEP070I93
         K23P01A KB2023 08 12.90862323 18 23.93 +23 23 23.4          18.6 GXEP070I93
         K23P01A KC2023 08 12.91225 23 18 28.96 +23 27 06.7          19.2 GXEP070G02
         K23P01A KC2023 08 12.91269823 18 33.32 +23 27 53.4          18.4 GVEP070104
         K23P01A KC2023 08 12.91430 23 18 34.65 +23 29 12.5          18.8 GXEP070G02
         K23P01A KC2023 08 12.91569623 18 41.70 +23 30 57.5          18.8 GVEP070104
         K23P01A KC2023 08 12.91855 23 18 46.49 +23 33 33.4          18.7 GXEP070G02
         K23P01A KC2023 08 12.91869523 18 50.11 +23 34 02.2          18.6 GVEP070104
         K23P01A KC2023 08 12.92373023 19 01.94 +23 38 39.8          18.8 GVEP070G34
         K23P01A KC2023 08 12.92482623 19 05.04 +23 39 47.8          19.1 GVEP070G34
         K23P01A KC2023 08 12.93140323 19 23.53 +23 46 34.4          18.1 GVEP070G34
         K23P01A KC2023 08 12.95069823 20 19.69 +24 07 09.5          18.4 GXEP070L01
         K23P01A KC2023 08 12.95125723 20 21.27 +24 07 44.0          18.4 GXEP070L01
         K23P01A KC2023 08 12.95179523 20 22.80 +24 08 18.4          18.5 GXEP070L01
         K23P01A KC2023 08 12.95235123 20 24.45 +24 08 53.1          18.6 GXEP070L01
         K23P01A KC2023 08 12.95290223 20 26.02 +24 09 27.7          18.7 GXEP070L01
         K23P01A KC2023 08 13.22348223 35 53.45 +29 16 51.5          18.1 VuEP070H21
         K23P01A KC2023 08 13.22506423 35 59.47 +29 18 49.8          17.9 VuEP070H21
         K23P01A KC2023 08 13.22664723 36 05.50 +29 20 47.7          19.4 VuEP070H21
         K23P01A KC2023 08 13.22980923 36 17.62 +29 24 44.0          18.9 VuEP070H21
    
    Observer details:
    033 Karl Schwarzschild Observatory, Tautenburg.  Observers S. Melnikov, C.
        Hoegner, F. Ludwig, B. Stecklum.  Measurer B. Stecklum.  1.34-m f/3
        Schmidt + CCD.
    104 San Marcello Pistoiese.  Observers P. Bacci, M. Maestripieri, M. D.
        Grazia, M. Facchini.  Measurers P. Bacci, L. Tesi, G. Fagioli.  0.60-m F4
        Reflector + CCD.
    G02 KYSUCE Observatory, Kysucke Nove Mesto.  Observer M. Urbanik.  0.40-m
        f/6.8 Corrected Dall-Kirkham + CCD.
    G34 Oberfrauendorf.  Observer T. Felber.  0.35-m f/6.3 Schmidt-Cassegrain +
        CCD.
    H21 Astronomical Research Observatory, Westfield.  Observer R. Holmes.
        Measurers T. Linder, R. Holmes, L. Horn.  0.76-m f/3.0 astrograph + CCD.
    I41 Palomar Mountain--ZTF.  Observers K. Venkataramani, T. Prince, G. Helou,
        Q.-Z. Ye, D. Kulkarni, V. Swain, C. Y. Hsu, Y. Cheng, T. Batra.  Measurers
        F. Masci, D. Shupe, K. Venkataramani, Q.-Z. Ye.  1.2-m f/2.44 Oschin-
        Schmidt + CCD.
    I93 St Pardon de Conques.  Observer F. Losse.  0.40-m f/3.7 reflector + CMO.
    K88 GINOP-KHK, Piszkesteto.  Observer K. Sarneczky.  0.60-m Schmidt + CCD.
    L01 Visnjan Observatory, Tican.  Observers K. Korlevic, L. Gelo, L. Ilisevic,
        I. Paleka, E. Pettarin.  Measurer I. Paleka.  1.0-m f/2.9 reflector + CCD.
    
    Orbital elements:
    2023 PA1                                                 Earth MOID = 0.0108 AU
    Epoch 2023 Sept. 13.0 TT = JDT 2460200.5                Veres                   
    M 351.50995              (2000.0)            P               Q                  
    n   0.42273292     Peri.  113.96315     +0.56653646     -0.82361303             
    a   1.7582961      Node   301.50178     +0.74432894     +0.52522994             
    e   0.6700520      Incl.    1.77570     +0.35356878     +0.21399787             
    P   2.33           H   25.29          G   0.15           U   9                  
    Residuals in seconds of arc
    230812 K88  0.2+  0.8-    230812 I93  0.3-  0.7-    230812 G34  0.8-  0.9-
    230812 K88  0.7-  0.7-    230812 I93  0.4+  1.1-    230812 L01  0.8-  0.8-
    230812 K88  0.1-  0.2-    230812 I93  0.2-  0.7-    230812 L01  1.1-  1.5-
    230812 I41  0.7-  0.7+    230812 I93  0.0   1.0-    230812 L01  1.3-  0.9-
    230812 I41  0.3-  0.7+    230812 G02  1.2-  1.6-    230812 L01  0.5-  1.1-
    230812 I41  1.0+  0.2+    230812 104  0.6-  0.4-    230812 L01  0.7-  1.1-
    230812 I41  0.7+  0.2+    230812 G02  1.4-  1.5-    230813 H21  0.1+  0.1-
    230812 033  0.3+  1.3-    230812 104  0.3-  0.6-    230813 H21  0.1+  0.5+
    230812 033  0.2-  1.1-    230812 G02  1.6-  1.7-    230813 H21  0.0   0.6+
    230812 033  0.2-  1.3-    230812 104  0.0   0.5-    230813 H21  0.5+  1.2+
    230812 033  0.1+  1.1-    230812 G34  0.3+  0.7-
    230812 I93  0.0   0.9-    230812 G34  0.4+  0.4-
    
    Ephemeris:
    2023 PA1                 a,e,i = 1.76, 0.67, 2                   q = 0.5801
    Date    TT    R. A. (2000) Decl.     Delta      r    Elong.  Phase     V
    2023 07 14    21 42 39.9 -13 58 08   0.3920  1.3643   147.8    23.4    25.0
    ...
    2023 07 29    21 52 41.8 -11 28 45   0.1965  1.2008   158.9    17.7    23.1
    ...
    2023 08 06    22 03 42.7 -07 12 36   0.09993 1.1099   162.0    16.4    21.4
    ...
    2023 08 12    22 48 08.8 +11 49 46   0.03227 1.0404   146.0    33.0    19.3
    2023 08 13    23 22 36.2 +25 00 54   0.02311 1.0288   131.3    47.7    19.0
    2023 08 14    00 58 15.6 +47 56 53   0.01740 1.0171   102.5    76.6    19.2
    ...
    2023 08 20    09 11 19.6 +27 28 04   0.06876 0.9469    17.9   160.8    30.6
    ...
    2023 08 28    09 31 55.1 +20 17 31   0.1642  0.8539    16.2   160.7    32.2
    ...
    2023 09 12    09 46 27.7 +16 30 23   0.3673  0.6936    25.5   141.3    29.3
    
    M. P. C. Staff               (C) Copyright 2023 MPC           M.P.E.C. 2023-P70
    


    Read MPEC 2023-P69 Read MPEC 2023-P71


    MPEC number:

    Enter an MPEC number in one of the following forms:

    • 1997-B01 (the full form)
    • J97B01 (the packed version of the full form)
    • B01 (the abbreviated form)